Location: Iesi
(43.5167°N, 13.2333°E)
Time: 17:10:48
(UTC+00:00)

Cosmos 2360 Rocket - Pass Details

Date: 08 August 2020
Orbit: 833 x 845 km, 71.0° (Epoch: 22 September)

Event Time Altitude Azimuth Distance (km) Brightness Sun altitude
Rises 22:13:06 0° 335° (NNW) 3,414 6.6 -29.1°
Reaches altitude 10° 22:15:34 10° 337° (NNW) 2,474 5.5 -29.3°
Enters shadow 22:20:49 74° 13° (NNE) 882 2.3 -29.5°
